Location: Jarosław
(50.0191°N, 22.6835°E)
Time: 01:02:28
(UTC+02:00)

ISS - Pass Details

Date: 29 March 2019
Orbit: 408 x 410 km, 51.6° (Epoch: 19 April)

Event Time Altitude Azimuth Distance (km) Brightness Sun altitude
Rises 18:29:23 0° 261° (W) 2,337 1.5 -6.1°
Reaches altitude 10° 18:31:29 10° 263° (W) 1,476 0.4 -6.5°
Maximum altitude 18:34:47 74° 348° (NNW) 432 -3.6 -7.0°
Drops below altitude 10° 18:38:06 10° 75° (ENE) 1,477 -1.5 -7.5°
Enters shadow 18:38:32 - 76° (ENE) 1,656 -1.3 -7.6°
